• In Hungary
  • List of Countries
  • For 7 days
  • Water Temperature
  • Satellite Maps
  • Weather Map
  • News
  • Weather Widgets
  • user-avatar
    Login

    Hourly Weather Sudzioka

    Today, 19 September, Wednesday

    Time Temperature Precipitation Wind Pressure Humidity
    00:00 +23°C° 0 mm 1 mps 758 mmHg 81%
    01:00 +23°C° 0 mm 1 mps 758 mmHg 80%
    02:00 +21°C° 0 mm 2 mps 758 mmHg 79%
    03:00 +21°C° 0 mm 2 mps 758 mmHg 78%
    04:00 +21°C° 0 mm 2 mps 758 mmHg 78%
    05:00 +21°C° 0 mm 2 mps 758 mmHg 78%
    06:00 +21°C° 0 mm 2 mps 758 mmHg 78%
    07:00 +24°C° 0 mm 2 mps 758 mmHg 71%
    08:00 +26°C° 0 mm 2 mps 758 mmHg 64%
    09:00 +28°C° 0 mm 2 mps 758 mmHg 57%
    10:00 +29°C° 0 mm 2 mps 758 mmHg 53%
    11:00 +30°C° 0 mm 2 mps 758 mmHg 49%
    12:00 +31°C° 0 mm 3 mps 757 mmHg 46%
    13:00 +30°C° 0 mm 3 mps 757 mmHg 48%
    14:00 +30°C° 0 mm 3 mps 757 mmHg 51%
    15:00 +29°C° 0 mm 3 mps 757 mmHg 53%
    16:00 +28°C° 0 mm 2 mps 757 mmHg 62%
    17:00 +26°C° 0 mm 2 mps 757 mmHg 70%
    18:00 +24°C° 0 mm 1 mps 757 mmHg 78%
    19:00 +24°C° 0 mm 1 mps 758 mmHg 81%
    20:00 +23°C° 0 mm 1 mps 758 mmHg 84%
    21:00 +23°C° 0 mm 1 mps 758 mmHg 86%
    22:00 +23°C° 0 mm 1 mps 758 mmHg 87%
    23:00 +22°C° 0 mm 1 mps 758 mmHg 87%

    Tomorrow, 20 September, Thursday

    Time Temperature Precipitation Wind Pressure Humidity
    00:00 +22°C° 0 mm 1 mps 758 mmHg 88%
    01:00 +21°C° 0 mm 2 mps 758 mmHg 87%
    02:00 +21°C° 0 mm 2 mps 758 mmHg 86%
    03:00 +21°C° 0 mm 2 mps 758 mmHg 85%
    04:00 +21°C° 0 mm 2 mps 758 mmHg 84%
    05:00 +21°C° 0 mm 2 mps 758 mmHg 82%
    06:00 +23°C° 0 mm 2 mps 758 mmHg 80%
    07:00 +24°C° 0.1 mm 2 mps 759 mmHg 78%
    08:00 +25°C° 0.1 mm 2 mps 759 mmHg 76%
    09:00 +26°C° 0.1 mm 2 mps 759 mmHg 74%
    10:00 +26°C° 0.2 mm 2 mps 759 mmHg 73%
    11:00 +26°C° 0.2 mm 2 mps 759 mmHg 71%
    12:00 +27°C° 0.2 mm 2 mps 759 mmHg 70%
    13:00 +26°C° 0.2 mm 2 mps 759 mmHg 71%
    14:00 +26°C° 0.2 mm 2 mps 758 mmHg 71%
    15:00 +26°C° 0.2 mm 2 mps 758 mmHg 72%
    16:00 +26°C° 0.1 mm 2 mps 758 mmHg 75%
    17:00 +25°C° 0.1 mm 2 mps 759 mmHg 79%
    18:00 +24°C° 0.1 mm 3 mps 759 mmHg 82%
    19:00 +24°C° 0.1 mm 3 mps 759 mmHg 83%
    20:00 +24°C° 0.1 mm 3 mps 759 mmHg 84%
    21:00 +24°C° 0.1 mm 3 mps 760 mmHg 85%
    22:00 +24°C° 0.6 mm 3 mps 759 mmHg 87%
    23:00 +22°C° 0.6 mm 3 mps 759 mmHg 88%

    Day after tomorrow, 21 September, Friday

    Time Temperature Precipitation Wind Pressure Humidity
    00:00 +22°C° 0.6 mm 3 mps 759 mmHg 90%
    01:00 +22°C° 1.5 mm 3 mps 759 mmHg 91%
    02:00 +22°C° 1.5 mm 3 mps 758 mmHg 91%
    03:00 +22°C° 1.5 mm 3 mps 758 mmHg 92%
    04:00 +22°C° 1.5 mm 3 mps 758 mmHg 92%
    05:00 +22°C° 1.5 mm 3 mps 758 mmHg 93%
    06:00 +22°C° 1.5 mm 3 mps 758 mmHg 93%
    07:00 +22°C° 2.7 mm 3 mps 758 mmHg 93%
    08:00 +22°C° 2.7 mm 3 mps 758 mmHg 92%
    09:00 +24°C° 2.7 mm 3 mps 759 mmHg 92%
    10:00 +24°C° 2.2 mm 3 mps 758 mmHg 92%
    11:00 +24°C° 2.2 mm 3 mps 758 mmHg 91%
    12:00 +24°C° 2.2 mm 3 mps 758 mmHg 91%
    13:00 +24°C° 1.5 mm 3 mps 757 mmHg 91%
    14:00 +24°C° 1.5 mm 2 mps 757 mmHg 90%
    15:00 +24°C° 1.5 mm 2 mps 756 mmHg 90%
    16:00 +24°C° 0.5 mm 2 mps 756 mmHg 90%
    17:00 +24°C° 0.5 mm 2 mps 756 mmHg 90%
    18:00 +24°C° 0.5 mm 1 mps 756 mmHg 90%
    19:00 +25°C° 0.2 mm 1 mps 756 mmHg 90%
    20:00 +25°C° 0.2 mm 1 mps 756 mmHg 91%
    21:00 +25°C° 0.2 mm 2 mps 756 mmHg 92%
    22:00 +25°C° 0.1 mm 2 mps 756 mmHg 92%
    23:00 +25°C° 0.1 mm 2 mps 755 mmHg 93%

    22 September, Saturday

    Time Temperature Precipitation Wind Pressure Humidity
    00:00 +26°C° 0.1 mm 3 mps 755 mmHg 94%
    01:00 +26°C° 0.4 mm 3 mps 755 mmHg 94%
    02:00 +26°C° 0.4 mm 4 mps 754 mmHg 94%
    03:00 +26°C° 0.4 mm 5 mps 754 mmHg 94%
    04:00 +26°C° 0.4 mm 5 mps 754 mmHg 94%
    05:00 +26°C° 0.4 mm 5 mps 754 mmHg 94%
    06:00 +26°C° 0.4 mm 5 mps 754 mmHg 94%
    07:00 +27°C° 0.2 mm 5 mps 754 mmHg 90%
    08:00 +28°C° 0.2 mm 5 mps 755 mmHg 86%
    09:00 +29°C° 0.2 mm 5 mps 755 mmHg 82%
    10:00 +30°C° 0.1 mm 4 mps 755 mmHg 80%
    11:00 +30°C° 0.1 mm 4 mps 755 mmHg 79%
    12:00 +30°C° 0.1 mm 4 mps 755 mmHg 77%
    13:00 +30°C° 0 mm 4 mps 755 mmHg 75%
    14:00 +30°C° 0 mm 4 mps 755 mmHg 74%
    15:00 +32°C° 0 mm 4 mps 754 mmHg 72%
    16:00 +30°C° 0 mm 4 mps 755 mmHg 75%
    17:00 +29°C° 0 mm 3 mps 755 mmHg 78%
    18:00 +27°C° 0 mm 3 mps 756 mmHg 82%
    19:00 +27°C° 0 mm 3 mps 756 mmHg 82%
    20:00 +27°C° 0 mm 3 mps 756 mmHg 83%
    21:00 +26°C° 0 mm 3 mps 756 mmHg 84%
    22:00 +26°C° 0 mm 3 mps 756 mmHg 84%
    23:00 +25°C° 0 mm 3 mps 756 mmHg 84%

    23 September, Sunday

    Time Temperature Precipitation Wind Pressure Humidity
    00:00 +25°C° 0 mm 3 mps 756 mmHg 84%
    01:00 +24°C° 0 mm 3 mps 756 mmHg 83%
    02:00 +24°C° 0 mm 3 mps 757 mmHg 82%
    03:00 +24°C° 0 mm 3 mps 757 mmHg 81%
    04:00 +24°C° 0 mm 3 mps 757 mmHg 78%
    05:00 +23°C° 0 mm 2 mps 757 mmHg 75%
    06:00 +23°C° 0 mm 2 mps 758 mmHg 73%
    07:00 +26°C° 0 mm 2 mps 758 mmHg 67%
    08:00 +28°C° 0 mm 2 mps 758 mmHg 61%
    09:00 +30°C° 0 mm 2 mps 758 mmHg 55%
    10:00 +31°C° 0 mm 2 mps 758 mmHg 51%
    11:00 +32°C° 0 mm 2 mps 758 mmHg 48%
    12:00 +32°C° 0 mm 2 mps 757 mmHg 44%
    13:00 +32°C° 0 mm 2 mps 757 mmHg 44%
    14:00 +33°C° 0 mm 3 mps 757 mmHg 44%
    15:00 +33°C° 0 mm 3 mps 756 mmHg 43%
    16:00 +30°C° 0 mm 3 mps 757 mmHg 48%
    17:00 +28°C° 0 mm 3 mps 757 mmHg 54%
    18:00 +26°C° 0 mm 3 mps 757 mmHg 59%
    19:00 +25°C° 0 mm 3 mps 758 mmHg 59%
    20:00 +25°C° 0 mm 2 mps 758 mmHg 59%
    21:00 +24°C° 0 mm 2 mps 758 mmHg 60%
    22:00 +24°C° 0 mm 3 mps 758 mmHg 58%
    23:00 +24°C° 0 mm 3 mps 758 mmHg 55%

    24 September, Monday

    Time Temperature Precipitation Wind Pressure Humidity
    00:00 +22°C° 0 mm 3 mps 758 mmHg 53%
    01:00 +22°C° 0 mm 3 mps 758 mmHg 51%
    02:00 +22°C° 0 mm 3 mps 758 mmHg 49%
    03:00 +23°C° 0 mm 2 mps 757 mmHg 47%
    04:00 +23°C° 0 mm 2 mps 758 mmHg 47%
    05:00 +23°C° 0 mm 2 mps 758 mmHg 48%
    06:00 +23°C° 0 mm 2 mps 758 mmHg 49%
    07:00 +24°C° 0 mm 2 mps 758 mmHg 50%
    08:00 +26°C° 0 mm 2 mps 759 mmHg 51%
    09:00 +28°C° 0 mm 2 mps 759 mmHg 52%
    10:00 +28°C° 0.2 mm 2 mps 759 mmHg 52%
    11:00 +29°C° 0.2 mm 2 mps 759 mmHg 52%
    12:00 +29°C° 0.2 mm 2 mps 758 mmHg 52%
    13:00 +29°C° 0.1 mm 2 mps 758 mmHg 55%
    14:00 +29°C° 0.1 mm 2 mps 758 mmHg 57%
    15:00 +28°C° 0.1 mm 2 mps 758 mmHg 60%
    16:00 +27°C° 0 mm 2 mps 758 mmHg 63%
    17:00 +26°C° 0 mm 2 mps 758 mmHg 66%
    18:00 +25°C° 0 mm 1 mps 758 mmHg 69%
    19:00 +25°C° 0 mm 1 mps 759 mmHg 70%
    20:00 +25°C° 0 mm 1 mps 759 mmHg 70%
    21:00 +25°C° 0 mm 1 mps 759 mmHg 71%
    22:00 +24°C° 0 mm 1 mps 759 mmHg 72%
    23:00 +24°C° 0 mm 1 mps 758 mmHg 72%
    Show more